This is the latest recevied weather packets stored in our database for station/object KC8BSD. If no packets are shown the sender has not sent any weather packets the latest 10 day(s).
| Time | Temp. | Humidity | Pressure | Rain* | Wind** | Luminosity | Snow |
|---|---|---|---|---|---|---|---|
| 1778203246 | 10° C | 54% | 1012.7 hPa | 0 mm | - | 0 W/m² | - |
| 1778202944 | 10° C | 54% | 1012.6 hPa | 0 mm | - | 0 W/m² | - |
| 1778202642 | 10° C | 55% | 1013 hPa | 0 mm | - | 0 W/m² | - |
| 1778202338 | 10° C | 54% | 1012.5 hPa | 0 mm | - | 0 W/m² | - |
| 1778202036 | 10° C | 53% | 1012.3 hPa | 0 mm | - | 0 W/m² | - |
| 1778201732 | 10.56° C | 52% | 1012.4 hPa | 0 mm | - | 0 W/m² | - |
| 1778201429 | 10.56° C | 52% | 1012.6 hPa | 0 mm | - | 0 W/m² | - |
| 1778201125 | 10.56° C | 51% | 1012.6 hPa | 0 mm | - | 0 W/m² | - |
| 1778200822 | 10.56° C | 51% | 1012.4 hPa | 0 mm | - | 1 W/m² | - |
| 1778200518 | 10.56° C | 50% | 1012.4 hPa | 0 mm | - | 2 W/m² | - |
| 1778200216 | 10.56° C | 50% | 1012.6 hPa | 0 mm | - | 4 W/m² | - |
| 1778199912 | 11.11° C | 48% | 1012.5 hPa | 0 mm | - | 6 W/m² | - |
| 1778199610 | 11.11° C | 48% | 1012.4 hPa | 0 mm | - | 8 W/m² | - |
| 1778199305 | 11.11° C | 48% | 1012.3 hPa | 0 mm | - | 15 W/m² | - |
| 1778199002 | 11.11° C | 47% | 1012.5 hPa | 0 mm | - | 12 W/m² | - |
| 1778198697 | 11.11° C | 47% | 1012.4 hPa | 0 mm | - | 4 W/m² | - |
| 1778198394 | 11.11° C | 49% | 1012.4 hPa | 0 mm | - | 9 W/m² | - |
| 1778198091 | 11.67° C | 47% | 1012.2 hPa | 0 mm | - | 16 W/m² | - |
| 1778197788 | 11.67° C | 45% | 1012.1 hPa | 0 mm | - | 26 W/m² | - |
| 1778197479 | 11.67° C | 46% | 1012.3 hPa | 0 mm | - | 42 W/m² | - |
| 1778197176 | 11.67° C | 46% | 1012.2 hPa | 0 mm | - | 26 W/m² | - |
| 1778196873 | 11.67° C | 45% | 1012.4 hPa | 0 mm | - | 30 W/m² | - |
| 1778196571 | 11.67° C | 45% | 1012.2 hPa | 0 mm | - | 36 W/m² | - |
| 1778196267 | 11.67° C | 46% | 1012.4 hPa | 0 mm | - | 48 W/m² | - |
| 1778195965 | 11.67° C | 45% | 1012.4 hPa | 0 mm | - | 67 W/m² | - |
* Rain latest hour (hover to see other rain measurements)
** Current wind speed in m/s (hover to see current wind gust speed)